CZ-4B R/B (27432 NORAD) Tracking and Keplerian Element Data

This shows tracking and keplerian element data for the satellite.

Feedback or suggestion? Click here.




ElementValue
Catalog27432
NameCZ-4B R/B
Epoch Orbit11812
Epoch Day13.09511062
Epoch Year2024
RAAN54.4931
Inclination98.9986
Eccentricity0.0051275
Argument of Perigee92.8758
Mean Anonmoly322.9764
Mean Motion14.14272768
Decay Rate1.07E-06
L11 27432U 02024C 24013.09511062 .00000107 00000+0 78387-4 0 9994
L22 27432 98.9986 54.4931 0051275 92.8758 322.9764 14.14272768118122



Live tracking and technical data element details for CZ-4B R/B (NORAD 27432). CZ-4B R/B can be tracked NOW for your location showing map with azimuth and elevation plus other details from your city location.







IsCatalogInMostPopularTable: catalog: 27432, numindb: 525
Update: records affected: 1



GetName: 27432 CZ-4B R/B

Hit Count: updated at: Sun, 14 Apr 2024 22:59:35 GMT